EW4205 Weather Reports


time (UTC)temp
C
wind
direction
speed
KPH
gust
KPH
rain 1hr
cm
rain 24hr
cm
rain mn
cm
humidity
%
barometer
mb
20260505122504 16 346 1.6 4.8 0.00 0.00 0.00 57 1006.4
20260505122003 16 218 0.0 3.2 0.00 0.00 0.00 56 1006.3
20260505121502 16 340 0.0 3.2 0.00 0.00 0.00 56 1006.2
20260505121002 16 320 0.0 1.6 0.00 0.00 0.00 56 1006.1
20260505120602 16 240 0.0 1.6 0.00 0.00 0.00 56 1006.2
20260505120126 16 263 0.0 1.6 0.00 0.00 0.00 56 1006.1
20260505115558 17 233 0.0 3.2 0.00 0.00 0.00 55 1006.0
20260505115058 17 307 0.0 3.2 0.00 0.00 0.00 53 1006.0
20260505114557 17 169 0.0 3.2 0.00 0.00 0.00 53 1006.0
20260505114055 17 169 0.0 3.2 0.00 0.00 0.00 53 1006.0
20260505113558 17 233 0.0 3.2 0.00 0.00 0.00 54 1005.9
20260505113053 17 251 0.0 6.4 0.00 0.00 0.00 52 1005.9
20260505112552 17 336 0.0 8.0 0.00 0.00 0.00 52 1005.8
20260505112052 17 299 3.2 8.0 0.00 0.00 0.00 51 1005.8
20260505111551 17 338 1.6 4.8 0.00 0.00 0.00 51 1005.8
20260505111050 17 254 0.0 4.8 0.00 0.00 0.00 50 1005.7
20260505110552 17 307 1.6 4.8 0.00 0.00 0.00 49 1005.7
20260505110148 18 324 1.6 6.4 0.00 0.00 0.00 49 1005.7
20260505102040 19 250 0.0 12.9 0.00 0.00 0.00 46 1005.1
20260505101540 19 266 1.6 8.0 0.00 0.00 0.00 46 1005.2
20260505101039 19 270 0.0 9.7 0.00 0.00 0.00 46 1005.2
20260505100538 19 262 3.2 8.0 0.00 0.00 0.00 46 1005.1
20260505100038 19 194 3.2 12.9 0.00 0.00 0.00 46 1005.1
20260505095538 19 224 1.6 12.9 0.00 0.00 0.00 45 1005.0
20260505095037 19 197 1.6 9.7 0.00 0.00 0.00 47 1005.0
20260505094537 19 287 0.0 14.5 0.00 0.00 0.00 45 1005.0
20260505094037 19 299 1.6 14.5 0.00 0.00 0.00 45 1005.0
20260505093536 19 251 1.6 6.4 0.00 0.00 0.00 45 1004.9
20260505093036 19 142 1.6 6.4 0.00 0.00 0.00 45 1004.9
20260505092537 19 209 1.6 4.8 0.00 0.00 0.00 45 1004.9
20260505092036 19 39 1.6 3.2 0.00 0.00 0.00 45 1004.9
20260505091536 19 15 0.0 6.4 0.00 0.00 0.00 46 1004.8
20260505091038 19 328 1.6 6.4 0.00 0.00 0.00 45 1004.8
20260505090534 19 316 1.6 6.4 0.00 0.00 0.00 46 1004.8
20260505090036 19 291 0.0 6.4 0.00 0.00 0.00 46 1004.8
20260505085533 19 217 0.0 6.4 0.00 0.00 0.00 46 1004.8
20260505085035 19 150 1.6 6.4 0.00 0.00 0.00 46 1004.7
20260505084536 19 218 1.6 9.7 0.00 0.00 0.00 46 1004.7
20260505084031 19 237 0.0 3.2 0.00 0.00 0.00 46 1004.7
20260505083533 19 351 0.0 4.8 0.00 0.00 0.00 46 1004.7
20260505083030 20 281 0.0 6.4 0.00 0.00 0.00 46 1004.7
20260505082529 20 352 1.6 6.4 0.00 0.00 0.00 46 1004.7
20260505082028 20 208 1.6 6.4 0.00 0.00 0.00 44 1004.8
20260505081528 20 330 1.6 6.4 0.00 0.00 0.00 44 1004.7
20260505081029 20 329 1.6 4.8 0.00 0.00 0.00 43 1004.8
20260505080531 20 298 1.6 4.8 0.00 0.00 0.00 43 1004.7
20260505080030 20 277 0.0 4.8 0.00 0.00 0.00 44 1004.8
20260505075527 20 174 1.6 8.0 0.00 0.00 0.00 44 1004.8
20260505075028 20 250 3.2 8.0 0.00 0.00 0.00 43 1004.7
20260505074527 20 229 0.0 11.3 0.00 0.00 0.00 44 1004.8
20260505074025 20 261 1.6 11.3 0.00 0.00 0.00 44 1004.8
20260505073524 20 139 3.2 9.7 0.00 0.00 0.00 43 1004.6
20260505073023 20 130 1.6 4.8 0.00 0.00 0.00 43 1004.6
20260505072523 20 228 0.0 4.8 0.00 0.00 0.00 44 1004.5
20260505072022 20 229 1.6 6.4 0.00 0.00 0.00 43 1004.5
20260505071525 20 203 3.2 6.4 0.00 0.00 0.00 44 1004.4
20260505071022 20 276 0.0 6.4 0.00 0.00 0.00 43 1004.5
20260505070524 20 311 1.6 6.4 0.00 0.00 0.00 44 1004.5
20260505070020 20 153 0.0 3.2 0.00 0.00 0.00 43 1004.4
20260505065519 20 261 0.0 3.2 0.00 0.00 0.00 44 1004.4
20260505065019 21 221 0.0 3.2 0.00 0.00 0.00 45 1004.4
20260505064529 21 255 0.0 4.8 0.00 0.00 0.00 43 1004.4
20260505064019 21 232 0.0 4.8 0.00 0.00 0.00 43 1004.4
20260505063519 21 208 0.0 3.2 0.00 0.00 0.00 42 1004.4
20260505063019 21 278 0.0 3.2 0.00 0.00 0.00 40 1004.4
20260505062518 21 53 0.0 3.2 0.00 0.00 0.00 40 1004.5
20260505062018 21 112 1.6 3.2 0.00 0.00 0.00 41 1004.4
20260505061517 21 60 0.0 3.2 0.00 0.00 0.00 40 1004.3
20260505061018 21 49 0.0 3.2 0.00 0.00 0.00 39 1004.3
20260505060517 22 48 0.0 4.8 0.00 0.00 0.00 39 1004.3
20260505060019 22 288 0.0 8.0 0.00 0.00 0.00 38 1004.3
20260505055617 22 322 1.6 8.0 0.00 0.00 0.00 38 1004.2
20260505055017 22 262 1.6 9.7 0.00 0.00 0.00 37 1004.2
20260505054532 22 292 1.6 14.5 0.00 0.00 0.00 37 1004.2
20260505054016 22 340 6.4 14.5 0.00 0.00 0.00 37 1004.1
20260505053518 22 336 6.4 16.1 0.00 0.00 0.00 36 1004.1
20260505053016 23 297 9.7 20.9 0.00 0.00 0.00 36 1004.0
20260505052516 23 337 9.7 20.9 0.00 0.00 0.00 36 1004.0
20260505052015 23 313 8.0 22.5 0.00 0.00 0.00 35 1004.0
20260505051515 23 303 9.7 19.3 0.00 0.00 0.00 35 1004.0
20260505051015 23 324 6.4 17.7 0.00 0.00 0.00 36 1003.9
20260505050517 23 302 8.0 17.7 0.00 0.00 0.00 35 1003.9
20260505041512 24 310 8.0 17.7 0.00 0.00 0.00 33 1003.4
20260505041012 24 299 8.0 17.7 0.00 0.00 0.00 32 1003.3
20260505040512 24 286 8.0 19.3 0.00 0.00 0.00 32 1003.3
20260505040013 25 346 8.0 19.3 0.00 0.00 0.00 32 1003.2
20260505035513 25 311 9.7 19.3 0.00 0.00 0.00 32 1003.2
20260505035012 25 311 9.7 17.7 0.00 0.00 0.00 31 1003.0
20260505034617 25 322 6.4 16.1 0.00 0.00 0.00 31 1003.0
20260505034011 25 354 8.0 16.1 0.00 0.00 0.00 32 1002.8
20260505033511 25 324 6.4 12.9 0.00 0.00 0.00 31 1002.7
20260505033011 25 330 4.8 11.3 0.00 0.00 0.00 31 1002.7
20260505032511 25 353 3.2 12.9 0.00 0.00 0.00 31 1002.7
20260505032010 25 341 4.8 8.0 0.00 0.00 0.00 31 1002.7
20260505031511 26 343 6.4 9.7 0.00 0.00 0.00 30 1002.5
20260505031011 26 322 4.8 11.3 0.00 0.00 0.00 30 1002.5
20260505030512 26 324 3.2 11.3 0.00 0.00 0.00 30 1002.5
20260505030029 26 312 4.8 12.9 0.00 0.00 0.00 29 1002.4
20260505025513 26 310 6.4 11.3 0.00 0.00 0.00 29 1002.4
20260505025009 26 325 4.8 12.9 0.00 0.00 0.00 28 1002.3
20260505024515 27 280 6.4 12.9 0.00 0.00 0.00 28 1002.3
20260505024009 27 318 1.6 12.9 0.00 0.00 0.00 28 1002.2
20260505023510 27 322 4.8 14.5 0.00 0.00 0.00 27 1002.2
20260505023008 28 349 6.4 14.5 0.00 0.00 0.00 27 1002.1
20260505022508 28 326 4.8 11.3 0.00 0.00 0.00 26 1002.1
20260505022008 28 299 6.4 17.7 0.00 0.00 0.00 26 1002.1
20260505021508 28 306 4.8 17.7 0.00 0.00 0.00 26 1002.0
20260505021008 29 301 4.8 14.5 0.00 0.00 0.00 25 1001.9
20260505020507 30 259 4.8 12.9 0.00 0.00 0.00 25 1001.9
20260505020007 30 284 4.8 16.1 0.00 0.00 0.00 23 1001.9
20260505015507 30 309 1.6 16.1 0.00 0.00 0.00 24 1001.9
20260505015006 30 316 4.8 11.3 0.00 0.00 0.00 24 1001.9
20260505014511 30 326 1.6 8.0 0.00 0.00 0.00 25 1001.9
20260505014005 30 318 3.2 6.4 0.00 0.00 0.00 25 1001.9
20260505013504 30 226 3.2 6.4 0.00 0.00 0.00 27 1001.9
20260505013012 30 262 0.0 8.0 0.00 0.00 0.00 26 1001.9
20260505012507 29 245 1.6 8.0 0.00 0.00 0.00 26 1002.0
20260505012004 29 234 0.0 4.8 0.00 0.00 0.00 25 1002.0
20260505011504 30 248 1.6 4.8 0.00 0.00 0.00 25 1002.0
20260505011002 30 249 1.6 6.4 0.00 0.00 0.00 24 1002.0
20260505010502 30 243 3.2 11.3 0.00 0.00 0.00 23 1002.1
20260505010002 30 191 3.2 11.3 0.00 0.00 0.00 25 1002.2
20260505005503 30 218 1.6 4.8 0.00 0.00 0.00 26 1002.1
20260505005002 30 218 1.6 6.4 0.00 0.00 0.00 24 1002.2
20260505004506 30 235 1.6 4.8 0.00 0.00 0.00 24 1002.2
20260505004001 31 220 1.6 9.7 0.00 0.00 0.00 22 1002.2
20260505003501 31 319 4.8 14.5 0.00 0.00 0.00 22 1002.2
20260505003001 31 232 1.6 11.3 0.00 0.00 0.00 23 1002.2
20260505002501 31 147 1.6 11.3 0.00 0.00 0.00 21 1002.2
20260505002103 31 199 3.2 8.0 0.00 0.00 0.00 25 1002.2
20260505001600 31 325 3.2 4.8 0.00 0.00 0.00 23 1002.3
20260505001100 31 170 1.6 12.9 0.00 0.00 0.00 23 1002.3
20260505000600 31 260 3.2 12.9 0.00 0.00 0.00 22 1002.3
20260505000113 31 315 4.8 14.5 0.00 0.00 0.00 22 1002.3
20260504235559 31 286 4.8 14.5 0.00 0.00 0.00 22 1002.3
20260504235100 31 249 3.2 12.9 0.00 0.00 0.00 26 1002.2
20260504234559 31 258 4.8 12.9 0.00 0.00 0.00 22 1002.2
20260504234058 31 291 3.2 11.3 0.00 0.00 0.00 22 1002.3
20260504233559 31 334 4.8 14.5 0.00 0.00 0.00 21 1002.3
20260504233104 32 169 4.8 14.5 0.00 0.00 0.00 21 1002.4
20260504232557 32 221 4.8 9.7 0.00 0.00 0.00 24 1002.3
20260504232056 32 269 1.6 9.7 0.00 0.00 0.00 24 1002.4
20260504231622 32 254 3.2 11.3 0.00 0.00 0.00 23 1002.4
20260504231055 31 254 3.2 9.7 0.00 0.00 0.00 23 1002.5
20260504230555 31 234 3.2 8.0 0.00 0.00 0.00 24 1002.5
20260504230054 31 342 3.2 6.4 0.00 0.00 0.00 23 1002.5
20260504225556 31 249 1.6 6.4 0.00 0.00 0.00 25 1002.6
20260504225056 31 216 1.6 9.7 0.00 0.00 0.00 25 1002.6
20260504224552 31 234 0.0 9.7 0.00 0.00 0.00 22 1002.7
20260504224052 31 228 6.4 12.9 0.00 0.00 0.00 23 1002.8
20260504223551 31 199 4.8 12.9 0.00 0.00 0.00 21 1002.8
20260504223050 31 144 3.2 12.9 0.00 0.00 0.00 22 1002.8
20260504222550 31 201 1.6 9.7 0.00 0.00 0.00 23 1002.9
20260504222051 31 301 0.0 16.1 0.00 0.00 0.00 23 1002.9
20260504221625 32 52 3.2 12.9 0.00 0.00 0.00 21 1003.0
20260504221048 32 216 1.6 9.7 0.00 0.00 0.00 21 1003.2
20260504220546 31 248 3.2 9.7 0.00 0.00 0.00 21 1003.3
20260504220045 31 197 3.2 6.4 0.00 0.00 0.00 23 1003.3
20260504215546 31 223 3.2 8.0 0.00 0.00 0.00 25 1003.4
20260504215045 31 142 1.6 6.4 0.00 0.00 0.00 22 1003.4
20260504214543 31 187 1.6 12.9 0.00 0.00 0.00 22 1003.5
20260504214042 31 222 3.2 12.9 0.00 0.00 0.00 22 1003.6
20260504213542 31 130 3.2 9.7 0.00 0.00 0.00 22 1003.7
20260504213045 31 172 1.6 14.5 0.00 0.00 0.00 23 1003.7
20260504212541 31 212 6.4 14.5 0.00 0.00 0.00 22 1003.7
20260504212039 31 244 8.0 14.5 0.00 0.00 0.00 22 1003.7
20260504211539 31 337 6.4 14.5 0.00 0.00 0.00 21 1003.9
20260504211038 31 358 1.6 6.4 0.00 0.00 0.00 21 1004.0
20260504210539 31 33 1.6 9.7 0.00 0.00 0.00 23 1004.1
20260504210040 32 163 1.6 9.7 0.00 0.00 0.00 19 1004.1
20260504205535 32 226 1.6 6.4 0.00 0.00 0.00 22 1004.1
20260504205035 32 350 3.2 11.3 0.00 0.00 0.00 21 1004.2
20260504204536 31 222 3.2 11.3 0.00 0.00 0.00 23 1004.3
20260504204034 32 168 4.8 9.7 0.00 0.00 0.00 21 1004.3
20260504203533 32 200 3.2 6.4 0.00 0.00 0.00 23 1004.3
20260504203034 32 239 1.6 8.0 0.00 0.00 0.00 22 1004.4
20260504202531 32 350 3.2 9.7 0.00 0.00 0.00 22 1004.5
20260504202030 32 346 1.6 12.9 0.00 0.00 0.00 22 1004.5
20260504201530 32 304 3.2 12.9 0.00 0.00 0.00 22 1004.6
20260504201029 32 341 1.6 9.7 0.00 0.00 0.00 22 1004.7
20260504194002 30 263 1.6 9.7 0.00 0.00 0.00 24 1004.8
20260504193502 30 108 4.8 9.7 0.00 0.00 0.00 23 1005.0
20260504193100 31 111 3.2 14.5 0.00 0.00 0.00 21 1005.0
20260504192600 31 209 3.2 14.5 0.00 0.00 0.00 21 1005.0
20260504192059 31 16 1.6 6.4 0.00 0.00 0.00 21 1005.1
20260504191622 32 133 0.0 6.4 0.00 0.00 0.00 23 1005.1
20260504191057 31 214 3.2 8.0 0.00 0.00 0.00 24 1005.2
20260504190556 31 243 3.2 8.0 0.00 0.00 0.00 25 1005.4
20260504190058 30 226 3.2 8.0 0.00 0.00 0.00 25 1005.4
20260504185552 30 228 1.6 6.4 0.00 0.00 0.00 27 1005.4
20260504185052 29 357 3.2 8.0 0.00 0.00 0.00 24 1005.5
20260504184601 29 10 1.6 9.7 0.00 0.00 0.00 25 1005.4
20260504184054 30 137 4.8 9.7 0.00 0.00 0.00 26 1005.6
20260504183550 29 179 0.0 11.3 0.00 0.00 0.00 26 1005.6
20260504183049 28 203 4.8 11.3 0.00 0.00 0.00 30 1005.6
20260504182548 28 133 3.2 9.7 0.00 0.00 0.00 28 1005.6
20260504182047 28 148 1.6 9.7 0.00 0.00 0.00 27 1005.7
20260504181547 28 135 1.6 9.7 0.00 0.00 0.00 28 1005.7
20260504181046 28 149 0.0 9.7 0.00 0.00 0.00 30 1005.7
20260504180547 28 166 3.2 9.7 0.00 0.00 0.00 26 1005.7
20260504180043 28 196 1.6 6.4 0.00 0.00 0.00 30 1005.7
20260504175542 27 272 3.2 6.4 0.00 0.00 0.00 29 1005.8
20260504175040 27 212 1.6 9.7 0.00 0.00 0.00 33 1005.8
20260504174539 26 224 3.2 9.7 0.00 0.00 0.00 31 1005.8
20260504174038 25 253 1.6 11.3 0.00 0.00 0.00 32 1005.7
20260504173536 25 213 3.2 11.3 0.00 0.00 0.00 32 1005.7
20260504173034 25 98 1.6 6.4 0.00 0.00 0.00 32 1005.8
20260504172534 24 219 0.0 6.4 0.00 0.00 0.00 34 1005.8
20260504172032 24 247 3.2 6.4 0.00 0.00 0.00 36 1005.9
20260504171532 23 210 1.6 6.4 0.00 0.00 0.00 34 1005.9
20260504171032 23 272 0.0 6.4 0.00 0.00 0.00 34 1005.9
20260504170533 23 203 3.2 6.4 0.00 0.00 0.00 35 1005.9
20260504151018 22 306 3.2 12.9 0.00 0.00 0.00 39 1006.4
20260504150521 21 196 1.6 9.7 0.00 0.00 0.00 38 1006.4
20260504141006 15 280 1.6 4.8 0.00 0.00 0.00 55 1006.2
20260504140503 15 222 0.0 1.6 0.00 0.00 0.00 54 1006.2
20260504130559 13 172 0.0 4.8 0.00 0.00 0.00 58 1005.8